TimePST,TemperatureF,Dew PointF,Humidity,Sea Level PressureIn,VisibilityMPH,Wind Direction,Wind SpeedMPH,Gust SpeedMPH,PrecipitationIn,Events,Conditions,WindDirDegrees,DateUTC
12:53 AM,17.1,15.1,92,30.44,10.0,WSW,3.5,-,N/A,,Clear,250,2014-01-23 08:53:00
1:53 AM,15.1,12.9,91,30.47,10.0,SE,3.5,-,N/A,,Clear,130,2014-01-23 09:53:00
2:53 AM,15.1,12.0,88,30.48,10.0,SSE,4.6,-,N/A,,Clear,160,2014-01-23 10:53:00
3:53 AM,15.1,12.9,91,30.49,10.0,Calm,Calm,-,N/A,,Clear,0,2014-01-23 11:53:00
4:53 AM,14.0,10.9,88,30.53,10.0,NE,3.5,-,N/A,,Clear,40,2014-01-23 12:53:00
5:53 AM,12.9,10.0,88,30.55,10.0,NE,3.5,-,N/A,,Clear,50,2014-01-23 13:53:00
6:53 AM,12.0,10.0,92,30.56,10.0,NE,3.5,-,N/A,,Clear,50,2014-01-23 14:53:00
7:09 AM,10.9,8.1,88,30.43,10.0,Calm,Calm,-,N/A,,Scattered Clouds,0,2014-01-23 15:09:00
7:17 AM,10.9,9.0,92,30.43,10.0,Calm,Calm,-,N/A,,Mostly Cloudy,0,2014-01-23 15:17:00
7:26 AM,12.9,10.0,88,30.43,1.2,Calm,Calm,-,N/A,,Mostly Cloudy,0,2014-01-23 15:26:00
7:33 AM,14.0,10.9,88,30.44,0.2,Calm,Calm,-,N/A,Fog,Light Freezing Fog,0,2014-01-23 15:33:00
7:51 AM,14.0,12.2,93,30.44,0.8,Calm,Calm,-,N/A,,Mist,0,2014-01-23 15:51:00
7:53 AM,14.0,12.0,92,30.58,1.0,Calm,Calm,-,N/A,,Mist,0,2014-01-23 15:53:00
7:57 AM,14.0,12.0,92,30.44,2.0,Calm,Calm,-,N/A,,Partly Cloudy,0,2014-01-23 15:57:00
8:05 AM,14.0,12.0,92,30.44,4.0,Calm,Calm,-,N/A,,Scattered Clouds,0,2014-01-23 16:05:00
8:08 AM,15.1,12.0,88,30.44,1.8,Calm,Calm,-,N/A,,Scattered Clouds,0,2014-01-23 16:08:00
8:17 AM,17.1,15.1,92,30.45,3.0,Calm,Calm,-,N/A,,Partly Cloudy,0,2014-01-23 16:17:00
8:53 AM,21.0,18.0,88,30.60,10.0,ENE,4.6,-,N/A,,Clear,70,2014-01-23 16:53:00
9:53 AM,24.1,21.0,88,30.62,10.0,North,3.5,-,N/A,,Clear,360,2014-01-23 17:53:00
10:53 AM,25.0,21.9,88,30.63,10.0,East,9.2,-,N/A,,Clear,100,2014-01-23 18:53:00
11:29 AM,28.9,24.1,82,30.50,10.0,NE,8.1,-,N/A,,Scattered Clouds,40,2014-01-23 19:29:00
11:53 AM,28.0,24.1,85,30.62,10.0,ENE,8.1,-,N/A,,Scattered Clouds,60,2014-01-23 19:53:00
12:08 PM,28.0,24.1,85,30.50,10.0,NNE,12.7,-,N/A,,Mostly Cloudy,20,2014-01-23 20:08:00
12:53 PM,30.0,24.1,79,30.61,10.0,NNE,5.8,-,N/A,,Mostly Cloudy,20,2014-01-23 20:53:00
1:09 PM,30.9,25.0,79,30.48,10.0,East,8.1,-,N/A,,Scattered Clouds,80,2014-01-23 21:09:00
1:53 PM,30.9,25.0,79,30.60,10.0,NNE,9.2,-,N/A,,Partly Cloudy,30,2014-01-23 21:53:00
2:26 PM,28.0,25.0,88,30.48,10.0,NNE,10.4,-,N/A,,Mostly Cloudy,30,2014-01-23 22:26:00
2:53 PM,27.0,24.1,89,30.61,9.0,NE,9.2,-,N/A,,Overcast,40,2014-01-23 22:53:00
3:53 PM,27.0,25.0,92,30.61,10.0,NE,10.4,-,N/A,,Overcast,50,2014-01-23 23:53:00
4:53 PM,25.0,24.1,96,30.62,6.0,NNE,6.9,-,N/A,,Overcast,20,2014-01-24 00:53:00
5:20 PM,25.0,24.1,96,30.49,5.0,NNE,6.9,-,N/A,,Overcast,30,2014-01-24 01:20:00
5:53 PM,25.0,24.1,96,30.64,6.0,North,4.6,-,N/A,,Overcast,10,2014-01-24 01:53:00
6:07 PM,25.0,24.1,96,30.50,6.0,North,5.8,-,N/A,,Overcast,10,2014-01-24 02:07:00
6:53 PM,25.0,24.1,96,30.65,6.0,North,3.5,-,N/A,,Overcast,360,2014-01-24 02:53:00
7:19 PM,26.1,25.0,96,30.52,7.0,Calm,Calm,-,N/A,,Overcast,0,2014-01-24 03:19:00
7:53 PM,25.0,24.1,96,30.66,3.0,Calm,Calm,-,N/A,,Overcast,0,2014-01-24 03:53:00
8:53 PM,24.1,24.1,100,30.66,4.0,South,4.6,-,N/A,,Overcast,190,2014-01-24 04:53:00
9:14 PM,24.1,23.0,96,30.55,2.5,South,5.8,-,N/A,,Overcast,190,2014-01-24 05:14:00
9:39 PM,24.1,23.0,96,30.55,1.2,Calm,Calm,-,N/A,,Overcast,0,2014-01-24 05:39:00
9:53 PM,24.1,23.0,96,30.68,1.2,South,3.5,-,N/A,,Overcast,170,2014-01-24 05:53:00
10:07 PM,24.1,23.0,96,30.56,0.8,SE,3.5,-,N/A,,Mist,140,2014-01-24 06:07:00
10:53 PM,24.1,23.0,96,30.69,0.5,NE,4.6,-,N/A,Fog,Light Freezing Fog,50,2014-01-24 06:53:00
11:53 PM,23.0,23.0,100,30.69,0.5,Calm,Calm,-,N/A,Fog,Light Freezing Fog,0,2014-01-24 07:53:00